Temperature
22 21 21 21 21 20 20 19 19 19 18 18 18 17 17 17 17 17 17 17 17 17 17 16 16 16 16 16 16 15 15 15 15 13 13 13 13 13 13 13 12 12 12
22 22 21 21 21 20 20 20 19 19 18 18 18 17 17 17 17 17 17 17 17 16 16 16 16 16 16 16 15 15 15 15 15 14 13 13 12 12 12 12 12 12 12
22 21 21 21 20 20 20 19 19 19 18 18 18 17 17 17 17 17 17 16 16 16 16 16 16 16 16 15 15 15 15 14 14 14 13 13 12 12 12 12 12 12 12
22 21 21 21 20 20 20 19 19 19 18 18 18 17 17 17 17 17 16 16 16 16 16 16 16 15 15 15 15 15 15 14 14 13 13 13 12 12 12 12 12 12 11
22 21 21 21 20 20 20 19 19 19 18 18 18 17 17 17 17 17 16 16 16 16 16 15 15 15 15 15 15 15 14 14 14 13 13 12 12 12 12 12 11 11 11
22 21 21 21 20 20 19 19 19 19 18 18 17 17 17 17 17 16 16 16 16 16 16 15 15 15 15 15 14 14 14 14 14 13 13 13 12 12 12 12 11 11 11
21 21 21 20 20 20 19 19 19 18 18 18 17 17 17 17 17 16 16 16 16 15 15 15 15 15 15 14 14 14 14 13 13 13 13 13 13 12 12 12 11 11 11
21 21 21 20 20 19 19 19 18 18 18 18 17 17 17 17 16 16 16 16 15 15 15 15 14 14 14 14 14 14 13 13 13 13 13 12 12 12 12 12 11 11 11
21 21 20 20 20 19 19 19 18 18 17 17 17 17 17 16 16 16 16 15 15 15 15 14 14 14 14 13 13 13 13 13 13 12 12 12 12 12 12 11 11 11 10
21 21 20 20 19 19 19 18 18 18 17 17 17 17 16 16 16 16 15 15 15 15 15 14 14 14 13 13 13 13 13 13 12 12 12 12 12 11 11 11 11 11 11
21 20 20 19 19 19 18 18 18 17 17 17 17 16 16 16 16 15 15 15 15 15 14 14 14 13 13 13 13 13 13 13 12 12 12 12 12 11 11 11 11 11 11
20 19 19 19 18 18 18 17 17 17 16 16 16 16 16 16 15 15 15 15 14 14 14 14 14 13 13 13 13 13 12 12 12 12 12 12 11 11 11 11 11 11 11
19 19 18 18 18 18 17 17 17 16 16 16 16 16 16 15 15 15 14 14 14 14 14 14 13 13 13 13 13 12 12 12 12 12 12 12 11 11 11 11 11 10 10
18 18 18 17 17 17 17 16 16 16 16 16 16 16 16 15 15 15 14 14 14 14 13 13 13 13 13 13 12 12 12 12 12 12 12 11 11 11 11 11 10 10 10
17 17 17 17 17 16 16 16 16 16 16 16 16 15 15 15 15 15 14 14 14 14 13 13 13 13 13 12 12 12 12 12 12 12 11 11 11 11 11 10 10 10 10
17 17 17 17 16 16 16 15 15 15 15 15 15 15 15 15 14 14 14 14 14 13 13 13 13 13 12 12 12 12 12 12 12 11 11 11 11 11 10 10 10 10 10
17 16 16 16 16 16 15 15 15 15 14 14 14 14 14 14 14 14 14 14 13 13 12 12 12 12 12 12 12 12 12 12 11 11 11 11 11 10 10 10 10 10 10
16 16 16 16 15 15 15 15 15 15 14 14 14 14 14 14 13 13 13 13 13 13 12 12 12 12 12 12 12 12 12 11 11 11 11 10 10 10 10 10 10 10 10
16 15 15 15 15 15 15 14 14 14 14 14 14 13 13 13 13 13 13 13 13 13 12 12 12 12 12 11 11 11 11 11 11 11 11 10 10 10 10 10 9 10 9
15 15 15 15 14 14 14 14 14 14 14 14 14 13 13 13 13 13 13 13 13 12 12 12 12 12 12 11 11 11 11 11 11 11 10 10 10 10 10 10 9 9 9
15 14 14 14 14 14 14 14 14 14 13 14 14 14 13 13 13 13 13 13 13 12 12 12 12 12 11 11 11 11 10 10 10 10 10 10 10 10 10 9 9 9 9
14 14 14 14 14 14 14 13 13 13 13 13 13 13 13 13 13 13 12 12 12 12 12 12 11 11 11 11 11 11 10 10 10 10 10 10 9 9 9 9 9 9 9
14 14 14 13 13 13 13 13 13 13 13 13 13 13 13 13 12 12 12 12 12 12 12 11 11 11 11 11 11 10 10 10 10 10 9 9 9 9 9 9 9 9 8
14 13 13 13 13 13 13 13 13 13 13 13 13 13 13 13 12 12 12 12 12 12 11 11 11 11 11 11 10 10 10 10 10 9 9 9 9 9 9 9 9 8 8
13 13 13 13 13 13 13 12 12 13 13 13 13 13 13 12 12 12 12 12 12 12 11 11 11 11 10 10 10 10 10 10 9 9 9 9 9 8 8 8 8 8 8
13 13 13 13 12 12 12 12 12 12 12 12 12 12 12 12 12 12 12 12 12 11 11 11 11 11 10 10 10 10 9 9 9 9 9 9 8 8 8 8 8 8 8
Wind_Speed
9 8 7 7 6 6 5 5 4 4 4 4 3 3 3 3 3 3 2 3 3 3 3 3 2 2 2 2 2 3 3 4 4 2 1 2 2 3 4 5 6 6 6
9 8 8 7 6 6 5 5 4 4 4 4 4 3 3 3 3 3 3 3 3 3 2 3 2 2 3 2 2 3 3 3 5 5 2 2 2 3 3 3 4 4 5
9 9 8 7 7 7 6 5 5 4 4 4 4 3 3 3 3 3 3 3 3 3 3 3 2 3 3 2 3 3 3 3 4 5 3 2 2 3 3 2 3 2 3
9 9 8 8 8 7 6 5 5 5 5 4 4 4 4 3 3 3 4 4 4 3 3 2 2 3 3 3 3 4 4 4 4 5 3 2 2 2 3 3 1 1 1
10 9 9 8 7 7 6 6 5 5 5 5 4 4 4 3 3 4 4 4 4 3 3 3 2 3 4 3 4 4 5 5 4 4 3 2 2 3 3 3 3 1 1
10 9 8 7 7 7 7 6 6 5 5 5 5 4 4 3 5 7 6 4 3 3 3 2 3 4 5 5 6 7 8 7 6 4 3 4 3 3 3 3 3 3 1
9 9 8 8 8 7 8 7 6 5 5 5 5 5 4 4 6 7 7 5 4 3 3 2 2 3 4 4 5 5 4 5 7 6 5 5 5 5 5 4 3 3 3
8 8 8 8 8 7 7 7 6 5 5 5 5 5 5 4 6 7 7 5 4 3 3 3 3 2 2 3 4 4 3 2 3 4 5 5 5 6 6 6 5 3 1
8 8 9 9 9 8 8 7 5 5 5 4 5 5 5 4 6 7 6 4 3 2 2 3 3 3 3 5 5 4 2 1 1 3 5 5 6 8 8 5 4 3 1
8 8 7 8 9 9 8 7 5 5 5 4 4 4 5 4 5 6 7 4 3 2 2 2 3 3 4 6 5 5 3 2 1 1 2 2 3 4 7 6 6 4 3
7 7 6 6 7 8 7 6 6 6 5 4 4 3 4 4 5 7 7 4 4 3 3 2 2 4 5 5 5 4 4 4 3 2 2 1 1 1 2 5 6 5 5
7 7 6 6 6 6 7 6 6 7 6 5 4 2 2 3 4 6 7 7 6 5 4 3 3 5 5 5 4 4 4 4 3 2 2 1 2 2 3 4 6 7 6
6 6 5 5 5 6 7 7 6 6 5 5 4 4 3 2 3 5 7 7 7 4 4 6 6 6 5 3 4 5 4 3 3 3 3 3 3 3 2 2 2 2 3
6 5 5 5 4 4 5 5 6 6 6 5 5 4 3 2 2 3 3 3 4 3 3 3 4 4 3 2 2 2 2 3 4 4 3 3 2 2 2 2 2 2 1
6 5 5 4 4 4 3 3 5 5 6 7 6 5 5 5 7 9 8 6 5 5 3 2 1 1 1 1 1 2 2 2 3 3 3 2 2 2 3 2 2 2 3
5 5 4 4 3 3 4 2 1 2 4 6 7 7 6 8 8 10 11 10 8 8 5 3 3 4 5 4 4 3 3 4 4 4 3 4 4 4 3 2 2 3 4
5 5 4 4 4 4 4 5 3 1 1 2 5 7 7 7 8 9 10 9 8 9 4 4 5 5 5 5 5 4 4 4 4 3 4 4 4 4 3 3 3 3 4
5 4 4 4 4 4 4 4 4 4 3 2 3 5 6 6 7 8 8 6 4 5 4 5 5 5 5 5 5 5 4 3 3 3 4 4 4 4 3 3 4 5 5
4 3 3 3 3 4 4 4 4 4 4 3 2 1 2 3 4 5 7 5 5 6 6 5 5 5 4 5 5 5 4 4 4 4 4 4 4 4 4 4 4 6 5
3 5 4 3 3 3 4 4 4 5 5 5 4 3 3 3 2 3 5 5 5 5 6 6 5 5 5 5 5 5 4 4 5 5 5 5 5 4 5 5 5 4 5
3 4 5 4 4 4 4 4 5 5 5 5 5 6 9 6 6 6 6 6 6 6 6 6 5 5 5 4 4 5 5 5 5 5 5 4 4 4 4 4 5 5 4
3 3 4 4 4 4 4 4 4 5 6 6 4 5 9 5 5 5 6 7 6 6 5 5 5 5 5 5 5 5 5 5 5 4 4 4 4 4 4 3 3 4 4
3 3 3 3 3 4 4 3 4 5 5 5 5 5 6 6 6 6 6 6 5 4 4 4 4 4 4 5 5 5 5 6 5 5 5 4 4 4 4 4 5 4 5
3 3 3 3 3 3 3 3 3 4 4 4 5 5 6 7 6 6 6 5 5 5 5 5 6 6 6 5 5 6 6 7 7 6 6 5 5 5 4 4 5 5 5
2 3 3 3 3 4 3 3 3 4 4 4 4 5 5 6 6 6 5 5 5 5 6 6 5 6 7 7 6 6 6 8 8 7 6 5 5 5 4 4 4 4 5
2 2 2 2 3 3 3 4 4 4 4 4 4 4 5 6 6 5 5 5 5 5 5 5 7 7 7 7 8 7 7 8 8 7 6 5 4 4 4 3 4 4 4
Wind_Direction
172 171 167 166 163 157 155 160 158 147 141 139 131 116 108 104 103 101 96 89 87 69 64 79 72 83 99 107 114 118 119 124 136 138 118 142 136 134 121 108 97 94 94
173 168 168 163 157 159 167 169 158 149 147 143 135 122 116 106 100 102 102 91 93 91 84 86 79 92 88 103 112 119 129 131 142 148 149 149 151 159 146 131 120 107 104
166 165 166 166 165 170 175 170 157 149 144 138 132 130 122 112 102 100 102 93 89 93 96 98 97 102 95 100 117 123 126 123 129 146 156 151 139 146 122 122 121 111 119
163 165 170 175 174 175 167 160 159 151 143 139 133 128 125 117 108 104 101 95 87 76 77 88 96 115 133 132 126 125 126 120 123 136 136 138 140 142 129 132 114 76 141
166 171 177 174 167 162 159 159 155 150 149 145 133 125 124 122 124 124 120 113 104 88 68 67 82 96 111 126 139 141 137 136 137 140 151 142 144 148 169 170 159 151 354
168 175 172 164 162 162 160 156 152 150 147 138 139 139 139 141 134 135 132 123 120 112 97 71 74 76 87 93 122 144 153 156 163 165 175 176 187 181 163 161 152 143 219
167 167 163 162 162 164 162 155 158 160 150 147 150 144 147 152 140 137 135 134 131 130 128 116 97 82 84 90 96 107 130 156 167 170 175 190 187 187 168 166 174 174 201
167 168 165 163 163 160 156 161 164 153 152 160 163 156 150 158 147 141 136 129 128 138 140 135 122 106 109 113 105 93 87 114 164 167 182 196 191 182 177 175 176 163 133
169 171 172 168 164 163 165 167 163 155 156 165 167 158 155 166 161 147 136 129 130 134 138 134 137 136 148 133 118 111 87 16 91 146 162 172 175 176 166 140 139 133 171
179 173 169 168 169 171 171 167 160 155 156 149 147 156 160 172 177 160 147 143 142 141 132 144 157 155 151 145 143 144 150 198 138 104 102 118 151 173 177 176 172 168 177
165 154 155 163 168 169 163 158 153 151 147 149 150 156 171 186 183 173 163 159 166 166 172 189 212 183 163 161 161 172 190 175 154 140 127 111 108 162 190 192 189 180 185
149 151 155 160 167 165 157 156 155 154 155 161 161 173 203 203 190 187 180 177 172 173 191 200 207 194 181 174 175 181 165 140 132 137 149 186 210 224 227 218 205 207 210
140 148 153 155 157 156 161 162 163 163 166 174 176 189 209 211 208 198 191 187 182 183 204 205 203 200 192 191 194 175 156 145 147 163 197 224 229 225 215 216 207 204 226
138 145 148 150 151 151 159 163 170 176 178 182 187 192 193 190 200 199 202 198 192 190 202 200 190 195 200 212 211 197 180 180 179 194 214 233 226 200 203 204 208 205 220
142 149 153 151 156 156 157 169 179 187 186 186 193 189 188 206 218 200 191 196 199 197 168 144 140 154 191 230 232 220 202 188 202 214 209 213 216 211 222 214 200 195 206
151 157 157 152 153 159 152 134 81 176 183 192 200 195 210 215 206 199 200 199 193 174 157 177 197 199 203 208 213 226 221 215 218 215 212 210 212 216 227 227 206 199 214
160 163 158 161 168 175 177 176 184 261 248 228 223 214 209 203 201 200 199 191 178 163 177 203 207 209 214 215 215 218 226 226 215 210 218 218 215 213 212 216 216 218 224
153 163 161 168 174 177 181 187 186 184 200 254 258 231 214 205 202 201 186 157 168 188 211 215 218 219 219 217 218 221 225 225 217 217 223 222 215 208 210 217 218 222 222
155 162 171 169 173 176 183 188 190 188 195 213 229 257 220 193 188 191 168 179 197 211 220 224 222 221 223 221 219 217 214 216 218 215 217 220 217 211 220 229 229 226 218
171 175 178 178 177 182 191 195 196 195 199 208 213 209 166 144 176 198 201 209 210 216 220 223 223 219 219 219 217 214 214 217 219 220 222 223 219 214 220 225 228 223 220
181 188 189 183 189 193 198 204 202 197 201 210 216 204 182 188 202 208 209 213 215 216 218 219 220 217 216 215 213 214 217 222 221 221 220 221 218 221 226 225 224 219 218
180 188 196 200 202 201 203 207 203 200 204 210 215 204 191 198 208 212 216 220 221 220 215 210 214 215 213 212 211 212 220 226 223 220 222 222 221 222 220 220 222 219 211
183 198 203 203 201 200 201 197 200 205 208 210 204 193 191 208 217 216 217 221 219 214 210 204 209 221 221 213 207 205 215 225 226 220 215 215 221 223 219 220 220 217 217
180 190 197 201 203 204 205 209 209 210 210 207 202 194 195 203 213 216 216 215 212 210 206 201 205 213 216 213 209 211 215 216 210 204 207 213 218 227 228 224 221 218 216
186 197 205 209 211 211 209 212 212 212 212 210 206 200 200 202 210 215 214 210 207 207 204 201 200 206 210 210 208 210 214 212 208 202 203 211 218 220 220 217 217 217 214
194 199 205 207 212 213 211 216 221 219 221 221 215 207 201 201 207 211 208 204 203 206 207 206 205 203 204 206 208 206 209 211 210 207 201 203 212 218 215 221 220 216 211
Height
1536 1538 1539 1540 1541 1542 1543 1543 1544 1544 1544 1544 1544 1544 1544 1543 1543 1542 1542 1541 1541 1541 1540 1540 1539 1539 1539 1539 1539 1540 1540 1541 1541 1542 1544 1545 1545 1545 1546 1546 1545 1545 1544
1534 1536 1537 1538 1539 1540 1541 1542 1543 1543 1543 1543 1543 1543 1543 1542 1542 1542 1541 1541 1540 1540 1539 1539 1539 1538 1538 1538 1538 1538 1539 1540 1540 1540 1542 1543 1544 1545 1546 1546 1546 1546 1545
1532 1534 1535 1536 1537 1539 1540 1541 1541 1542 1542 1542 1542 1542 1542 1542 1542 1541 1540 1540 1540 1539 1539 1538 1538 1538 1538 1537 1538 1538 1538 1539 1540 1540 1541 1542 1543 1545 1545 1546 1546 1546 1546
1529 1531 1533 1534 1535 1537 1538 1539 1540 1541 1541 1541 1541 1541 1541 1541 1541 1541 1540 1540 1539 1539 1538 1538 1537 1537 1537 1537 1537 1537 1538 1539 1539 1539 1540 1541 1542 1543 1544 1545 1545 1545 1546
1527 1529 1530 1532 1534 1535 1536 1537 1538 1539 1539 1540 1540 1540 1540 1540 1540 1540 1540 1539 1539 1538 1538 1537 1537 1537 1537 1537 1537 1537 1537 1538 1538 1539 1540 1540 1541 1542 1542 1543 1544 1544 1545
1524 1526 1528 1530 1531 1533 1534 1535 1536 1537 1537 1537 1538 1538 1539 1539 1539 1539 1539 1538 1538 1538 1537 1537 1537 1536 1536 1536 1536 1537 1537 1537 1537 1538 1538 1539 1539 1540 1541 1542 1543 1543 1543
1521 1523 1525 1527 1529 1530 1532 1533 1533 1534 1535 1535 1536 1536 1537 1537 1537 1538 1537 1537 1537 1537 1537 1537 1536 1536 1536 1536 1536 1536 1536 1537 1537 1537 1537 1538 1538 1539 1540 1541 1542 1542 1542
1518 1520 1522 1524 1526 1527 1529 1530 1531 1532 1532 1533 1533 1534 1535 1536 1536 1536 1536 1536 1536 1536 1536 1536 1536 1536 1536 1536 1536 1535 1535 1535 1536 1536 1537 1537 1538 1538 1539 1540 1541 1541 1541
1515 1517 1519 1521 1523 1524 1526 1527 1528 1529 1530 1530 1531 1532 1533 1534 1535 1535 1535 1535 1535 1535 1535 1535 1535 1535 1535 1535 1535 1534 1534 1534 1535 1535 1535 1536 1536 1537 1538 1538 1539 1539 1539
1512 1514 1516 1518 1520 1521 1523 1524 1526 1527 1528 1528 1529 1531 1532 1533 1534 1534 1534 1534 1533 1533 1533 1534 1534 1534 1534 1534 1534 1533 1533 1533 1534 1534 1534 1534 1535 1535 1536 1537 1537 1538 1538
1509 1511 1514 1516 1517 1519 1520 1522 1523 1525 1526 1527 1528 1530 1531 1532 1532 1532 1533 1533 1533 1532 1532 1532 1532 1532 1532 1532 1533 1532 1532 1533 1533 1533 1533 1533 1533 1534 1534 1535 1535 1536 1536
1507 1509 1511 1512 1515 1516 1518 1519 1521 1522 1523 1524 1526 1527 1529 1530 1530 1530 1531 1531 1531 1531 1531 1531 1531 1531 1531 1531 1531 1531 1531 1531 1531 1531 1531 1531 1532 1532 1532 1533 1533 1533 1533
1505 1506 1508 1510 1512 1514 1515 1516 1518 1519 1520 1521 1522 1524 1525 1526 1527 1528 1528 1529 1529 1529 1529 1529 1529 1529 1529 1529 1529 1529 1529 1529 1529 1529 1529 1529 1530 1530 1530 1530 1531 1531 1531
1502 1504 1506 1507 1509 1511 1513 1514 1515 1516 1517 1518 1519 1520 1521 1522 1523 1524 1525 1526 1527 1527 1527 1527 1527 1527 1527 1527 1527 1527 1527 1527 1527 1527 1527 1527 1527 1527 1527 1527 1527 1527 1527
1500 1502 1503 1505 1507 1508 1510 1511 1512 1513 1514 1515 1516 1517 1518 1519 1520 1521 1522 1522 1523 1524 1524 1524 1524 1524 1524 1524 1524 1524 1524 1524 1524 1524 1524 1524 1524 1524 1524 1524 1524 1524 1524
1497 1499 1500 1501 1503 1505 1506 1508 1509 1511 1511 1512 1513 1514 1515 1516 1518 1518 1518 1519 1520 1520 1521 1520 1520 1520 1520 1520 1520 1521 1521 1521 1521 1521 1521 1521 1521 1521 1520 1521 1521 1520 1520
1495 1496 1497 1499 1500 1501 1503 1504 1505 1506 1508 1509 1509 1510 1511 1512 1513 1514 1515 1515 1515 1516 1516 1516 1516 1516 1516 1516 1517 1517 1517 1517 1517 1517 1517 1517 1517 1517 1517 1517 1517 1517 1517
1493 1494 1495 1496 1498 1499 1500 1500 1501 1502 1503 1504 1505 1506 1507 1508 1509 1510 1511 1511 1510 1510 1511 1511 1511 1512 1512 1512 1512 1513 1513 1513 1513 1513 1513 1513 1513 1513 1513 1513 1513 1513 1513
1490 1492 1493 1494 1495 1496 1497 1498 1498 1498 1499 1500 1501 1502 1503 1504 1505 1506 1506 1505 1505 1505 1506 1507 1507 1507 1507 1508 1508 1508 1508 1508 1509 1509 1509 1509 1509 1509 1509 1509 1509 1509 1509
1487 1488 1490 1491 1492 1493 1494 1495 1495 1495 1496 1497 1497 1497 1498 1499 1499 1500 1500 1501 1501 1501 1501 1502 1502 1503 1503 1503 1504 1503 1504 1504 1504 1504 1504 1504 1504 1504 1504 1504 1504 1504 1504
1484 1485 1487 1488 1489 1490 1490 1491 1492 1492 1492 1493 1493 1494 1494 1494 1495 1496 1496 1496 1496 1496 1497 1497 1498 1498 1499 1499 1499 1499 1499 1499 1499 1499 1499 1499 1499 1499 1499 1499 1499 1499 1499
1482 1482 1484 1485 1486 1486 1487 1488 1488 1488 1489 1489 1490 1490 1490 1491 1491 1491 1492 1492 1492 1492 1493 1493 1493 1494 1494 1494 1494 1494 1493 1493 1493 1493 1494 1494 1494 1494 1494 1494 1494 1495 1495
1478 1479 1480 1481 1482 1483 1483 1483 1484 1484 1485 1485 1485 1485 1486 1486 1487 1487 1487 1487 1488 1488 1488 1489 1489 1489 1489 1489 1489 1489 1489 1488 1488 1488 1488 1489 1489 1489 1489 1489 1489 1490 1490
1475 1476 1477 1478 1478 1479 1479 1479 1480 1480 1481 1481 1481 1481 1482 1482 1483 1483 1483 1483 1483 1484 1484 1484 1484 1484 1484 1484 1484 1484 1484 1484 1484 1484 1484 1484 1483 1484 1484 1484 1484 1485 1485
1472 1473 1474 1474 1475 1475 1476 1476 1476 1476 1477 1477 1477 1477 1477 1478 1478 1478 1479 1479 1479 1479 1479 1480 1480 1480 1480 1480 1479 1479 1479 1479 1479 1479 1479 1479 1479 1479 1479 1479 1479 1480 1480
1470 1470 1470 1470 1471 1471 1472 1472 1472 1472 1473 1473 1473 1473 1473 1474 1474 1474 1475 1475 1475 1475 1475 1475 1475 1475 1475 1475 1475 1475 1475 1475 1475 1475 1475 1475 1475 1475 1475 1475 1475 1475 1476